Hourly Weather Babiczki

Today, 30 October, Friday

Time Temperature Precipitation Wind Pressure Humidity
00:00 +5°C° 0 mm 4 mps 747 mmHg 86%
01:00 +5°C° 0 mm 4 mps 747 mmHg 86%
02:00 +5°C° 0 mm 4 mps 747 mmHg 88%
03:00 +5°C° 0 mm 4 mps 747 mmHg 89%
04:00 +5°C° 0 mm 3 mps 747 mmHg 91%
05:00 +4°C° 0 mm 3 mps 747 mmHg 91%
06:00 +4°C° 0 mm 3 mps 747 mmHg 92%
07:00 +4°C° 0 mm 3 mps 747 mmHg 90%
08:00 +5°C° 0 mm 4 mps 748 mmHg 84%
09:00 +6°C° 0 mm 4 mps 748 mmHg 78%
10:00 +8°C° 0 mm 4 mps 748 mmHg 71%
11:00 +9°C° 0 mm 3 mps 747 mmHg 69%
12:00 +10°C° 0 mm 3 mps 747 mmHg 67%
13:00 +10°C° 0 mm 3 mps 747 mmHg 64%
14:00 +10°C° 0.1 mm 3 mps 746 mmHg 69%
15:00 +9°C° 0.1 mm 3 mps 746 mmHg 75%
16:00 +9°C° 0.1 mm 3 mps 746 mmHg 80%
17:00 +9°C° 0.5 mm 2 mps 746 mmHg 84%
18:00 +8°C° 0.5 mm 2 mps 746 mmHg 88%
19:00 +9°C° 0.5 mm 1 mps 746 mmHg 91%
20:00 +9°C° 0.6 mm 1 mps 746 mmHg 92%
21:00 +9°C° 0.6 mm 1 mps 746 mmHg 93%
22:00 +9°C° 0.6 mm 1 mps 746 mmHg 94%
23:00 +9°C° 0.1 mm 1 mps 747 mmHg 94%

Tomorrow, 31 October, Saturday

Time Temperature Precipitation Wind Pressure Humidity
00:00 +9°C° 0.1 mm 1 mps 747 mmHg 93%
01:00 +8°C° 0.1 mm 0 mps 747 mmHg 93%
02:00 +9°C° 0 mm 1 mps 748 mmHg 93%
03:00 +9°C° 0 mm 1 mps 748 mmHg 93%
04:00 +8°C° 0 mm 1 mps 748 mmHg 93%
05:00 +8°C° 0 mm 1 mps 749 mmHg 94%
06:00 +8°C° 0 mm 1 mps 749 mmHg 94%
07:00 +7°C° 0 mm 1 mps 750 mmHg 94%
08:00 +8°C° 0 mm 1 mps 750 mmHg 89%
09:00 +9°C° 0 mm 1 mps 750 mmHg 83%
10:00 +10°C° 0 mm 0 mps 751 mmHg 78%
11:00 +10°C° 0 mm 0 mps 751 mmHg 74%
12:00 +11°C° 0 mm 0 mps 751 mmHg 71%
13:00 +11°C° 0 mm 0 mps 751 mmHg 67%
14:00 +11°C° 0 mm 0 mps 751 mmHg 70%
15:00 +11°C° 0 mm 1 mps 751 mmHg 72%
16:00 +11°C° 0 mm 1 mps 751 mmHg 74%
17:00 +10°C° 0 mm 1 mps 751 mmHg 76%
18:00 +9°C° 0 mm 1 mps 751 mmHg 78%
19:00 +8°C° 0 mm 2 mps 752 mmHg 79%
20:00 +7°C° 0 mm 2 mps 752 mmHg 80%
21:00 +7°C° 0 mm 2 mps 752 mmHg 81%
22:00 +7°C° 0 mm 2 mps 752 mmHg 82%
23:00 +6°C° 0 mm 2 mps 752 mmHg 83%

Day after tomorrow, 1 November, Sunday

Time Temperature Precipitation Wind Pressure Humidity
00:00 +5°C° 0 mm 3 mps 752 mmHg 84%
01:00 +5°C° 0 mm 3 mps 752 mmHg 85%
02:00 +5°C° 0 mm 3 mps 751 mmHg 86%
03:00 +4°C° 0 mm 3 mps 751 mmHg 87%
04:00 +4°C° 0 mm 3 mps 751 mmHg 88%
05:00 +4°C° 0 mm 3 mps 751 mmHg 87%
06:00 +4°C° 0 mm 3 mps 751 mmHg 87%
07:00 +4°C° 0 mm 3 mps 751 mmHg 87%
08:00 +5°C° 0 mm 4 mps 750 mmHg 80%
09:00 +7°C° 0 mm 4 mps 750 mmHg 74%
10:00 +8°C° 0 mm 5 mps 750 mmHg 67%
11:00 +9°C° 0 mm 5 mps 749 mmHg 67%
12:00 +10°C° 0 mm 5 mps 749 mmHg 67%
13:00 +12°C° 0 mm 5 mps 748 mmHg 67%
14:00 +11°C° 0 mm 4 mps 748 mmHg 70%
15:00 +11°C° 0 mm 4 mps 747 mmHg 74%
16:00 +10°C° 0 mm 4 mps 747 mmHg 77%
17:00 +10°C° 0 mm 4 mps 747 mmHg 80%
18:00 +10°C° 0 mm 4 mps 747 mmHg 82%
19:00 +9°C° 0 mm 5 mps 747 mmHg 84%
20:00 +9°C° 0.6 mm 5 mps 747 mmHg 88%
21:00 +9°C° 0.6 mm 5 mps 746 mmHg 91%
22:00 +9°C° 0.6 mm 5 mps 746 mmHg 94%
23:00 +9°C° 0.2 mm 5 mps 746 mmHg 94%

2 November, Monday

Time Temperature Precipitation Wind Pressure Humidity
00:00 +9°C° 0.2 mm 5 mps 746 mmHg 93%
01:00 +10°C° 0.2 mm 4 mps 746 mmHg 92%
02:00 +11°C° 0.2 mm 4 mps 745 mmHg 92%
03:00 +10°C° 0.2 mm 5 mps 745 mmHg 93%
04:00 +10°C° 0.2 mm 5 mps 745 mmHg 93%
05:00 +11°C° 0.1 mm 4 mps 745 mmHg 94%
06:00 +11°C° 0.1 mm 4 mps 745 mmHg 95%
07:00 +11°C° 0.1 mm 4 mps 745 mmHg 95%
08:00 +11°C° 0.1 mm 4 mps 745 mmHg 95%
09:00 +12°C° 0.1 mm 4 mps 745 mmHg 94%
10:00 +12°C° 0.1 mm 3 mps 745 mmHg 94%
11:00 +12°C° 0 mm 3 mps 745 mmHg 94%
12:00 +12°C° 0 mm 3 mps 745 mmHg 93%
13:00 +12°C° 0 mm 4 mps 745 mmHg 93%
14:00 +12°C° 0 mm 4 mps 745 mmHg 93%
15:00 +13°C° 0 mm 4 mps 745 mmHg 93%
16:00 +13°C° 0 mm 4 mps 745 mmHg 93%
17:00 +13°C° 0 mm 4 mps 745 mmHg 93%
18:00 +13°C° 0 mm 4 mps 745 mmHg 94%
19:00 +13°C° 0 mm 4 mps 745 mmHg 94%
20:00 +13°C° 0 mm 4 mps 745 mmHg 94%
21:00 +13°C° 0 mm 4 mps 745 mmHg 94%
22:00 +13°C° 0 mm 4 mps 746 mmHg 93%
23:00 +13°C° 0 mm 4 mps 746 mmHg 92%

3 November, Tuesday

Time Temperature Precipitation Wind Pressure Humidity
00:00 +13°C° 0 mm 4 mps 746 mmHg 92%
01:00 +13°C° 0 mm 4 mps 746 mmHg 91%
02:00 +13°C° 0 mm 4 mps 746 mmHg 90%
03:00 +13°C° 0 mm 4 mps 746 mmHg 90%
04:00 +13°C° 0 mm 4 mps 746 mmHg 90%
05:00 +13°C° 0 mm 3 mps 746 mmHg 91%
06:00 +13°C° 0 mm 3 mps 746 mmHg 92%
07:00 +12°C° 0 mm 3 mps 747 mmHg 93%
08:00 +13°C° 0.1 mm 4 mps 747 mmHg 89%
09:00 +13°C° 0.1 mm 5 mps 748 mmHg 86%
10:00 +14°C° 0.1 mm 6 mps 749 mmHg 82%
11:00 +13°C° 0 mm 5 mps 749 mmHg 78%
12:00 +12°C° 0 mm 4 mps 750 mmHg 74%
13:00 +12°C° 0 mm 4 mps 750 mmHg 69%
14:00 +11°C° 0 mm 3 mps 750 mmHg 69%
15:00 +11°C° 0 mm 3 mps 751 mmHg 69%
16:00 +11°C° 0 mm 3 mps 751 mmHg 69%
17:00 +10°C° 0 mm 2 mps 751 mmHg 72%
18:00 +10°C° 0 mm 2 mps 752 mmHg 74%
19:00 +9°C° 0 mm 2 mps 752 mmHg 77%
20:00 +9°C° 0 mm 2 mps 752 mmHg 77%
21:00 +10°C° 0 mm 1 mps 753 mmHg 78%
22:00 +9°C° 0 mm 1 mps 753 mmHg 78%
23:00 +9°C° 0 mm 1 mps 753 mmHg 77%

4 November, Wednesday

Time Temperature Precipitation Wind Pressure Humidity
00:00 +9°C° 0 mm 1 mps 753 mmHg 76%
01:00 +9°C° 0 mm 1 mps 753 mmHg 75%
02:00 +9°C° 0.1 mm 1 mps 753 mmHg 75%
03:00 +9°C° 0.1 mm 1 mps 753 mmHg 76%
04:00 +9°C° 0.1 mm 1 mps 753 mmHg 76%
05:00 +9°C° 0.6 mm 1 mps 753 mmHg 80%
06:00 +7°C° 0.6 mm 2 mps 753 mmHg 83%
07:00 +7°C° 0.6 mm 2 mps 754 mmHg 86%
08:00 +7°C° 0.2 mm 2 mps 754 mmHg 84%
09:00 +7°C° 0.2 mm 2 mps 754 mmHg 81%
10:00 +7°C° 0.2 mm 2 mps 754 mmHg 78%
11:00 +8°C° 0 mm 2 mps 755 mmHg 76%
12:00 +8°C° 0 mm 2 mps 755 mmHg 73%
13:00 +9°C° 0 mm 1 mps 755 mmHg 70%
14:00 +9°C° 0 mm 1 mps 755 mmHg 72%
15:00 +9°C° 0 mm 1 mps 755 mmHg 74%
16:00 +9°C° 0 mm 1 mps 755 mmHg 76%
17:00 +8°C° 0 mm 1 mps 756 mmHg 78%
18:00 +8°C° 0 mm 1 mps 756 mmHg 80%
19:00 +8°C° 0 mm 1 mps 757 mmHg 82%
20:00 +7°C° 0 mm 1 mps 757 mmHg 84%
21:00 +7°C° 0 mm 1 mps 758 mmHg 86%
22:00 +5°C° 0 mm 0 mps 758 mmHg 87%
23:00 +6°C° 0 mm 1 mps 758 mmHg 88%
Show more